Location: Banska Bystrica
(0.0000°N, 19.1500°E)
Time: 16:55:24
(UTC+01:00)

Daily predictions for brighter satellites

Satellite Brightness Start Highest point End
(mag) Time Altitude Azimuth Time Altitude Azimuth Time Altitude Azimuth
GPS 2-12 Rocket1 4.0 17:49:08 10° SW 17:53:13 36° SSE 17:57:20 10° E
Cosmos 1782 4.5 17:56:21 10° SE 17:58:43 15° E 18:01:04 10° ENE
ATLAS 5 CENTAUR R/B 3.3 17:52:50 10° N 17:58:48 33° ENE 18:04:56 10° SE
CZ-3B R/B 3.4 17:49:52 10° WNW 17:59:27 53° NNE 18:02:02 10° E
Tiangong 2 3.3 17:59:12 10° NE 17:59:28 10° NE 17:59:44 10° NE
GPS 2-15 Rocket1 4.1 17:58:34 10° NW 18:02:35 28° NNE 18:06:18 11° ENE
CZ-4 R/B 1.3 18:01:08 10° SSE 18:04:57 62° ENE 18:08:49 10° N
USA 161 4.4 18:04:54 10° WNW 18:05:19 10° W 18:05:45 10° W
CZ-4C R/B 3.4 18:02:27 10° SW 18:06:43 33° WNW 18:11:03 10° N
Cosmos 1606 3.3 18:03:20 10° SSE 18:06:52 36° E 18:10:25 10° NNE
Meteor 1-26 Rocket 4.3 18:03:55 10° S 18:09:51 74° E 18:15:43 10° N
NOAA 12 4.1 18:08:51 10° SSE 18:14:06 61° ENE 18:19:20 10° N
Intelsat 5-3 Rocket 3.6 18:13:29 10° WSW 18:15:16 19° SSW 18:17:02 10° SSE
Cosmos 1809 Rocket 4.4 18:10:36 10° S 18:16:42 81° E 18:22:46 10° N
Delta 198 3.7 18:14:00 10° WSW 18:18:24 73° SSE 18:22:11 18° ENE
NOSS 3-1 (C) 4.5 18:12:32 10° NNW 18:21:10 78° WSW 18:29:49 10° SSE
YAOGAN 1 2.5 18:17:49 10° SSE 18:22:08 72° ENE 18:26:25 10° N
Ariane H10-3 3.6 18:17:19 10° WNW 18:22:10 67° N 18:44:51 16° E
Ariane H10-3 3.6 18:17:20 10° WNW 18:22:10 67° N 18:44:49 16° E
CSL-04 Debris 4.5 18:20:35 10° S 18:26:04 74° WSW 18:31:32 10° NNW
Ariane H10-3 2.1 18:18:47 10° WNW 18:26:27 59° N 18:27:53 27° ENE
Cosmos 2082 Rocket 3.7 18:22:38 10° NW 18:27:56 40° WSW 18:33:15 10° S
COSMOS 2455 3.5 18:22:49 10° NNW 18:28:43 60° WSW 18:34:37 10° S
Cosmos 2184 Rocket 4.0 18:23:38 10° S 18:30:00 74° E 18:36:20 10° N
NOSS 3-1 (A) 4.2 18:21:54 10° NNW 18:30:34 84° ENE 18:39:14 10° SSE
Meteor 2-14 Rocket 4.4 18:24:50 10° S 18:30:58 80° E 18:37:02 10° N
Cosmos 2181 Rocket 4.1 18:26:11 10° NNE 18:32:10 51° E 18:38:16 10° SSE
GPS 2-18 Rocket1 3.3 18:29:45 10° NW 18:33:18 45° NNE 18:34:22 34° ENE
Cosmos 2074 Rocket 3.9 18:27:28 10° S 18:33:41 84° E 18:39:53 10° N
Cosmos 1331 Rocket 3.9 18:30:24 10° N 18:35:32 72° ENE 18:40:44 10° SSE
USA 215 3.3 18:29:09 10° SSE 18:35:42 82° SW 18:42:15 10° NW
MTI 3.9 18:38:28 45° E 18:38:43 46° E 18:41:45 10° S
SL-24 DEB 4.1 18:34:43 10° S 18:39:21 79° E 18:43:59 10° N
Cosmos 2327 Rocket 4.3 18:33:34 10° S 18:39:37 70° E 18:45:40 10° N
Envisat 3.4 18:36:47 10° SE 18:41:29 38° ENE 18:46:09 10° N
Cosmos 1869 Rocket 3.4 18:38:13 10° N 18:42:32 70° E 18:46:51 10° S
GPS 2-17 Rocket1 3.5 18:38:45 10° W 18:43:13 55° SSW 18:46:06 20° SE
deb Ariane 4.0 18:41:38 10° WNW 18:44:17 31° N 18:44:31 31° NNE
Cosmos 407 Rocket 3.4 18:42:25 10° S 18:47:38 84° E 18:51:14 20° NNE
H-2A R/B 4.4 18:48:13 10° SSW 18:51:33 33° W 18:54:52 10° NW
Cosmos 374 Rocket 4.3 18:50:46 10° NNW 18:59:51 - SSE 18:54:11 55° NE
Centaur D-1AR AC-39 3.1 18:49:21 10° W 18:55:50 40° SSW 18:58:25 17° SE
BREEZE-M TANK 2.8 18:55:14 10° NW 18:58:26 75° NE 19:06:38 10° SE
ARIANE 44L R/B 3.8 18:32:32 10° W 18:59:43 62° N 19:01:32 42° ENE
Meteor 1-10 Rocket 4.0 18:55:52 10° S 19:01:28 75° E 19:04:03 33° NNE
EO 1 Del DPAF 4.4 19:04:32 31° SSE 19:04:32 31° SSE 19:06:45 10° S
Cosmos 2154 Rocket 3.9 18:56:47 10° S 19:03:03 79° E 19:07:28 21° N
ISS -2.0 19:02:58 10° SSW 19:04:38 26° S 19:04:38 26° S
ARIANE DEB (SPELDA) 2.9 19:10:10 10° WNW 19:12:40 58° NNW 19:12:40 58° NNW
Cosmos 921 Rocket 3.7 19:14:08 10° NNW 19:18:31 54° W 19:22:53 10° S
Palapa 6 Rocket 3.5 19:12:57 10° WSW 19:19:13 71° NNW 19:19:29 70° N
Cosmos 1302 Rocket 4.2 19:16:49 10° NNW 19:22:04 71° WSW 19:27:19 10° S
ARIANE 5 DEB (SYLDA) 4.2 19:20:30 10° W 19:21:49 31° WSW 19:21:49 31° WSW
Cosmos 1295 Rocket 4.2 19:17:23 10° S 19:23:28 77° E 19:23:52 74° NE
ARIANE 5 R/B 3.5 19:21:23 10° W 19:25:24 46° NW 19:25:24 46° NW
ARIANE 5 R/B 3.6 18:24:28 10° W 19:28:06 80° N 19:29:38 60° ENE
Cosmos 2341 Rocket 3.8 19:26:32 10° S 19:32:47 88° E 19:32:51 87° NE
GPS 2-12 Rocket1 4.5 19:32:18 10° WSW 19:34:55 33° W 19:34:55 33° W
Lacrosse 5 3.9 19:37:07 10° S 19:38:36 18° S 19:38:36 18° S
ATLAS 5 CENTAUR R/B 4.5 19:37:39 10° WNW 19:43:25 29° WSW 19:49:14 10° S
ARIANE 5 R/B 4.1 19:47:48 10° W 20:00:33 52° WSW 20:00:33 52° WSW
Ariane 42L Rocket 4.5 19:55:14 10° W 20:16:16 66° W 20:16:16 66° W
